Find Starlink 31474

NORAD ID: 59304 Int'l Des: 2024-056 Owner: SPXS Country: US Constellation: starlink operational
LEOCIRCULAR

リアルタイム位置

3D地球を読み込み中...

Starlink 31474について

説明を読み込み中...

次回通過

Passes for default location (London). Set your location on the main map for personalized predictions.

高度履歴

Loading altitude history...

軌道要素

1 59304U 24056J 26132.96694459 .00000794 00000-0 38392-4 0 9993
2 59304 43.0028 220.8733 0001167 269.6042 90.4676 15.27577602121063
Epoch: May 12, 2026 • Age: 13 hours

現在のステータス

高度 485.9 km
速度 7.63 km/s
衛星直下点 38.32°N, 136.65°W
打ち上げ日 Mar 24, 2024
運用期間 2.1 years
タイプ internet

技術仕様

分類 Payload
質量 730.00 kg
乾燥質量 700.00 kg
総質量 730.00 kg
長さ 0.30 m
直径 4.10 m
スパン 29.00 m
形状 Box + pan
製造者 SPXS
バスタイプ Starlink V2M
フェーズステータス In Orbit
所有者/国 SPXS/US

Most Searched